Hourly Weather Holopya

Today, 12 April, Monday

Time Temperature Precipitation Wind Pressure Humidity
00:00 +8°C° 0 mm 4 mps 753 mmHg 60%
01:00 +8°C° 0 mm 4 mps 753 mmHg 61%
02:00 +7°C° 0 mm 4 mps 753 mmHg 62%
03:00 +7°C° 0 mm 4 mps 753 mmHg 61%
04:00 +7°C° 0 mm 4 mps 753 mmHg 61%
05:00 +6°C° 0 mm 4 mps 753 mmHg 61%
06:00 +7°C° 0 mm 4 mps 753 mmHg 59%
07:00 +7°C° 0 mm 5 mps 753 mmHg 58%
08:00 +8°C° 0 mm 5 mps 753 mmHg 56%
09:00 +10°C° 0 mm 6 mps 752 mmHg 51%
10:00 +11°C° 0 mm 6 mps 752 mmHg 45%
11:00 +14°C° 0 mm 7 mps 752 mmHg 39%
12:00 +15°C° 0 mm 6 mps 752 mmHg 39%
13:00 +15°C° 0 mm 6 mps 751 mmHg 38%
14:00 +16°C° 0 mm 6 mps 751 mmHg 38%
15:00 +16°C° 0 mm 5 mps 751 mmHg 40%
16:00 +17°C° 0 mm 4 mps 750 mmHg 43%
17:00 +17°C° 0 mm 4 mps 750 mmHg 45%
18:00 +15°C° 0 mm 4 mps 750 mmHg 49%
19:00 +14°C° 0 mm 3 mps 750 mmHg 52%
20:00 +13°C° 0 mm 3 mps 750 mmHg 55%
21:00 +12°C° 0 mm 3 mps 750 mmHg 57%
22:00 +12°C° 0 mm 3 mps 750 mmHg 58%
23:00 +11°C° 0 mm 3 mps 750 mmHg 59%

Tomorrow, 13 April, Tuesday

Time Temperature Precipitation Wind Pressure Humidity
00:00 +11°C° 0 mm 3 mps 750 mmHg 61%
01:00 +12°C° 0 mm 2 mps 750 mmHg 63%
02:00 +12°C° 0 mm 2 mps 750 mmHg 64%
03:00 +10°C° 0 mm 2 mps 750 mmHg 69%
04:00 +9°C° 0 mm 2 mps 750 mmHg 75%
05:00 +9°C° 0 mm 2 mps 750 mmHg 80%
06:00 +9°C° 0 mm 2 mps 751 mmHg 80%
07:00 +9°C° 0 mm 3 mps 751 mmHg 80%
08:00 +9°C° 0 mm 3 mps 751 mmHg 80%
09:00 +9°C° 0.1 mm 3 mps 751 mmHg 80%
10:00 +9°C° 0.1 mm 3 mps 751 mmHg 81%
11:00 +8°C° 0.1 mm 4 mps 751 mmHg 81%
12:00 +8°C° 0.1 mm 4 mps 751 mmHg 81%
13:00 +8°C° 0.1 mm 4 mps 751 mmHg 80%
14:00 +8°C° 0.1 mm 4 mps 751 mmHg 80%
15:00 +8°C° 0 mm 5 mps 751 mmHg 80%
16:00 +7°C° 0 mm 5 mps 751 mmHg 81%
17:00 +7°C° 0 mm 5 mps 750 mmHg 81%
18:00 +6°C° 0.1 mm 5 mps 750 mmHg 84%
19:00 +6°C° 0.1 mm 5 mps 750 mmHg 86%
20:00 +5°C° 0.1 mm 5 mps 750 mmHg 88%
21:00 +3°C° 0 mm 5 mps 750 mmHg 88%
22:00 +3°C° 0 mm 5 mps 750 mmHg 88%
23:00 +3°C° 0 mm 5 mps 750 mmHg 89%

Day after tomorrow, 14 April, Wednesday

Time Temperature Precipitation Wind Pressure Humidity
00:00 +3°C° 0 mm 5 mps 749 mmHg 88%
01:00 +3°C° 0 mm 5 mps 749 mmHg 88%
02:00 +3°C° 0 mm 5 mps 749 mmHg 87%
03:00 +2°C° 0 mm 5 mps 749 mmHg 88%
04:00 +2°C° 0 mm 5 mps 749 mmHg 88%
05:00 +2°C° 0 mm 5 mps 749 mmHg 89%
06:00 +2°C° 0.2 mm 5 mps 749 mmHg 90%
07:00 +1°C° 0.2 mm 5 mps 749 mmHg 91%
08:00 +1°C° 0.2 mm 5 mps 748 mmHg 92%
09:00 +1°C° 0.4 mm 5 mps 748 mmHg 92%
10:00 +1°C° 0.4 mm 5 mps 748 mmHg 92%
11:00 +1°C° 0.4 mm 5 mps 748 mmHg 93%
12:00 +1°C° 0.5 mm 5 mps 748 mmHg 93%
13:00 +1°C° 0.5 mm 5 mps 748 mmHg 93%
14:00 +1°C° 0.5 mm 5 mps 748 mmHg 93%
15:00 +1°C° 0.5 mm 5 mps 748 mmHg 94%
16:00 +1°C° 0.5 mm 5 mps 748 mmHg 94%
17:00 +1°C° 0.5 mm 5 mps 748 mmHg 95%
18:00 +1°C° 0.4 mm 5 mps 748 mmHg 95%
19:00 0°C° 0.4 mm 5 mps 748 mmHg 95%
20:00 0°C° 0.4 mm 4 mps 748 mmHg 96%
21:00 0°C° 0.2 mm 4 mps 748 mmHg 96%
22:00 0°C° 0.2 mm 4 mps 748 mmHg 96%
23:00 +1°C° 0.2 mm 3 mps 748 mmHg 96%

15 April, Thursday

Time Temperature Precipitation Wind Pressure Humidity
00:00 +2°C° 0.2 mm 3 mps 748 mmHg 96%
01:00 +2°C° 0.2 mm 3 mps 748 mmHg 96%
02:00 +2°C° 0.2 mm 3 mps 747 mmHg 97%
03:00 +3°C° 0.2 mm 2 mps 747 mmHg 97%
04:00 +3°C° 0.2 mm 2 mps 747 mmHg 97%
05:00 +3°C° 0.2 mm 2 mps 747 mmHg 97%
06:00 +4°C° 0.2 mm 1 mps 747 mmHg 97%
07:00 +4°C° 0.2 mm 1 mps 748 mmHg 96%
08:00 +4°C° 0.2 mm 1 mps 748 mmHg 96%
09:00 +4°C° 0 mm 0 mps 748 mmHg 94%
10:00 +5°C° 0 mm 0 mps 748 mmHg 91%
11:00 +5°C° 0 mm 0 mps 748 mmHg 89%
12:00 +8°C° 0 mm 1 mps 748 mmHg 83%
13:00 +9°C° 0 mm 1 mps 748 mmHg 78%
14:00 +10°C° 0 mm 1 mps 748 mmHg 72%
15:00 +10°C° 0 mm 1 mps 748 mmHg 73%
16:00 +10°C° 0 mm 1 mps 748 mmHg 74%
17:00 +10°C° 0 mm 1 mps 748 mmHg 74%
18:00 +8°C° 0 mm 2 mps 748 mmHg 79%
19:00 +7°C° 0 mm 2 mps 748 mmHg 83%
20:00 +7°C° 0 mm 2 mps 748 mmHg 87%
21:00 +6°C° 0 mm 2 mps 748 mmHg 89%
22:00 +6°C° 0 mm 2 mps 748 mmHg 91%
23:00 +5°C° 0 mm 3 mps 748 mmHg 93%

16 April, Friday

Time Temperature Precipitation Wind Pressure Humidity
00:00 +5°C° 0 mm 3 mps 748 mmHg 94%
01:00 +5°C° 0 mm 3 mps 748 mmHg 96%
02:00 +4°C° 0 mm 3 mps 748 mmHg 97%
03:00 +5°C° 0.7 mm 3 mps 747 mmHg 96%
04:00 +5°C° 0.7 mm 3 mps 747 mmHg 96%
05:00 +5°C° 0.7 mm 3 mps 747 mmHg 95%
06:00 +5°C° 0.4 mm 4 mps 747 mmHg 94%
07:00 +6°C° 0.4 mm 4 mps 747 mmHg 92%
08:00 +6°C° 0.4 mm 4 mps 748 mmHg 91%
09:00 +7°C° 0 mm 5 mps 748 mmHg 87%
10:00 +8°C° 0 mm 5 mps 748 mmHg 84%
11:00 +9°C° 0 mm 5 mps 748 mmHg 81%
12:00 +10°C° 0 mm 5 mps 748 mmHg 77%
13:00 +12°C° 0 mm 5 mps 748 mmHg 73%
14:00 +13°C° 0 mm 5 mps 747 mmHg 68%
15:00 +13°C° 0.1 mm 5 mps 747 mmHg 72%
16:00 +13°C° 0.1 mm 6 mps 747 mmHg 75%
17:00 +11°C° 0.1 mm 6 mps 747 mmHg 78%
18:00 +12°C° 1.7 mm 5 mps 747 mmHg 82%
19:00 +10°C° 1.7 mm 5 mps 748 mmHg 86%
20:00 +10°C° 1.7 mm 5 mps 748 mmHg 90%
21:00 +10°C° 0.2 mm 5 mps 748 mmHg 90%
22:00 +9°C° 0.2 mm 5 mps 748 mmHg 90%
23:00 +9°C° 0.2 mm 5 mps 749 mmHg 91%

17 April, Saturday

Time Temperature Precipitation Wind Pressure Humidity
00:00 +9°C° 0.1 mm 5 mps 749 mmHg 90%
01:00 +9°C° 0.1 mm 6 mps 749 mmHg 90%
02:00 +9°C° 0.1 mm 6 mps 749 mmHg 90%
03:00 +9°C° 0.1 mm 6 mps 750 mmHg 90%
04:00 +9°C° 0.1 mm 6 mps 750 mmHg 89%
05:00 +9°C° 0.1 mm 6 mps 750 mmHg 89%
06:00 +8°C° 0.1 mm 5 mps 751 mmHg 89%
07:00 +8°C° 0.1 mm 5 mps 751 mmHg 90%
08:00 +8°C° 0.1 mm 5 mps 752 mmHg 90%
09:00 +8°C° 0 mm 5 mps 752 mmHg 89%
10:00 +8°C° 0 mm 5 mps 753 mmHg 87%
11:00 +9°C° 0 mm 5 mps 753 mmHg 86%
12:00 +9°C° 0 mm 5 mps 753 mmHg 83%
13:00 +10°C° 0 mm 5 mps 753 mmHg 80%
14:00 +11°C° 0 mm 6 mps 754 mmHg 77%
15:00 +10°C° 0 mm 6 mps 754 mmHg 79%
16:00 +10°C° 0 mm 5 mps 754 mmHg 80%
17:00 +9°C° 0 mm 5 mps 754 mmHg 82%
18:00 +9°C° 0 mm 5 mps 755 mmHg 83%
19:00 +8°C° 0 mm 5 mps 755 mmHg 84%
20:00 +8°C° 0 mm 5 mps 755 mmHg 84%
21:00 +8°C° 0 mm 5 mps 756 mmHg 84%
22:00 +8°C° 0 mm 5 mps 756 mmHg 85%
23:00 +7°C° 0 mm 4 mps 756 mmHg 85%
Show more